Location: Kouchibouguac National Park
(46.8081°N, 64.9088°W)
Time: 02:01:21
(UTC-04:00)

Daily predictions for brighter satellites

Satellite Brightness Start Highest point End
(mag) Time Altitude Azimuth Time Altitude Azimuth Time Altitude Azimuth
Cosmos 2082 Rocket 4.1 04:18:12 10° SSE 04:22:54 27° ESE 04:27:38 10° NE
Cosmos 1697 Rocket 3.8 04:24:00 39° ENE 04:24:00 39° ENE 04:28:42 10° SE
Cosmos 1833 Rocket 4.1 04:34:14 16° SSE 04:38:02 36° ESE 04:43:07 10° NE
CZ-4B R/B 4.0 04:37:40 10° NNE 04:41:41 47° NE 04:41:41 47° NE
USA 267 3.3 04:40:52 10° NE 04:46:54 67° N 04:46:54 67° N
Cosmos 2142 Rocket 4.5 04:47:54 73° NE 04:48:20 78° E 04:54:31 10° SSE
Cosmos 1980 Rocket 3.0 04:59:54 34° N 05:01:54 47° ENE 05:07:22 10° SE
Cosmos 44 4.3 05:05:00 33° SSE 05:06:00 37° ESE 05:10:03 10° NE
SJ 16-02 2.1 05:08:48 47° SE 05:08:48 47° SE 05:12:00 10° SSE
Cosmos 2279 Rocket 4.0 05:02:57 14° N 05:08:24 77° E 05:14:37 10° SSE
Okean-O 3.9 05:06:15 10° NNE 05:10:28 40° E 05:14:39 10° S
Okean 2 Rocket 3.5 05:06:27 10° S 05:10:53 63° E 05:15:23 10° NNE
Cosmos 292 Rocket 4.3 05:10:05 16° S 05:13:43 57° ESE 05:18:23 10° NNE
RESURS DK-1 3.5 05:17:13 37° NE 05:17:47 39° NE 05:21:41 10° SE
Meteor 1-19 Rocket 4.3 05:16:11 21° N 05:20:19 80° E 05:26:13 10° SSE
USA 234 3.4 05:17:38 10° SSE 05:23:57 50° SW 05:24:59 46° WSW
Cosmos 1536 Rocket 4.4 05:22:23 21° N 05:24:58 47° ENE 05:29:10 10° SSE
Cosmos 1125 Rocket 3.5 05:25:24 62° SW 05:25:24 62° SW 05:30:13 10° S
Lacrosse 5 rocket 1.6 05:29:41 65° SSW 05:29:41 65° SSW 05:33:58 10° SE
Cosmos 2360 4.4 05:28:03 30° NNW 05:30:58 71° ENE 05:36:40 10° SE
SeaSat 1 2.9 05:26:36 10° NNE 05:30:26 44° NNW 05:30:26 44° NNW
COSMO-SKYMED 1 2.4 05:28:07 10° SSE 05:32:28 87° W 05:33:01 67° NNW
Cosmos 2369 4.4 05:33:29 37° SW 05:33:29 37° SW 05:37:45 10° S
SL-16 R/B 3.6 05:30:25 13° N 05:34:50 33° NE 05:39:56 10° ESE
Cosmos 2278 4.3 05:36:05 38° SW 05:36:05 38° SW 05:40:38 10° S
Cosmos 1634 Rocket 4.4 05:40:46 39° WSW 05:40:46 39° WSW 05:45:57 10° SSW
Cosmos 1656 4.2 05:44:11 35° WSW 05:44:11 35° WSW 05:48:28 10° S
Cosmos 2322 Rocket 3.5 05:39:27 12° NNW 05:44:10 37° NE 05:49:24 10° ESE
IRS-1C Rocket 4.4 05:39:21 10° N 05:43:59 44° NW 05:43:59 44° NW
ATLAS 5 CENTAUR R/B 4.1 05:46:33 13° NNW 05:48:24 15° N 05:51:33 10° NE
COSMOS 2487 2.9 05:51:13 47° N 05:51:13 47° N 05:53:52 10° NNE
EO 1 Del DPAF 3.2 05:47:30 10° S 05:51:08 58° WSW 05:51:08 58° WSW
GEOS 3 Rocket 4.5 05:46:19 10° NE 05:51:36 53° ESE 05:56:49 10° SSW
Cosmos 44 Rocket 3.1 05:54:51 15° SW 05:58:47 84° NW 06:03:33 10° NE
Cosmos 1437 Rocket 3.1 05:56:41 10° S 06:00:39 68° E 06:04:33 10° NNE
Cosmos 540 Rocket 3.8 05:59:17 31° WSW 06:01:05 42° WNW 06:06:02 10° N
Nadezhda 4 Rocket 3.9 05:57:52 10° S 06:04:03 89° E 06:10:13 10° N
Meteor 2-20 4.3 05:59:30 10° SSW 06:05:36 73° W 06:11:42 10° N
Meteor 1-23 Rocket 4.2 06:00:11 10° N 06:05:49 89° E 06:11:23 10° S
Cosmos 2082 Rocket 2.3 06:01:05 10° SW 06:06:41 53° WNW 06:12:17 10° NNE
Cosmos 1697 Rocket 3.3 06:05:47 30° WNW 06:07:20 36° WSW 06:12:23 10° S
Aureole 1 4.3 06:12:12 48° W 06:12:27 50° WSW 06:15:33 10° S
CZ-2C R/B 2.3 06:08:12 10° NNE 06:13:12 86° WNW 06:17:59 10° SSW
SKYMED 2 4.4 06:16:58 10° SSW 06:20:42 28° W 06:21:38 26° WNW
CZ-4C R/B 3.2 06:15:44 10° SSW 06:20:43 49° ESE 06:26:27 10° NE
Cosmos 1833 Rocket 3.1 06:16:38 10° SW 06:21:54 40° NW 06:27:12 10° NNE
CZ-4B R/B 4.3 06:19:11 10° N 06:23:18 21° WNW 06:23:34 21° WNW
USA 267 3.9 06:23:52 10° NE 06:29:48 39° N 06:34:15 17° WNW
Okean 1-7 Rocket 4.0 06:26:04 10° N 06:30:34 68° E 06:35:05 10° SSE
Cosmos 1536 3.1 06:27:01 10° SSW 06:30:53 43° WNW 06:34:47 10° N
SMAP 3.9 06:28:04 10° NNE 06:32:40 55° E 06:37:14 10° S
Cosmos 1500 3.6 06:29:40 10° S 06:33:29 68° E 06:37:20 10° NNE
OE (NEXTSAT) 4.4 06:31:56 23° W 06:34:03 75° S 06:37:37 10° ESE
IDEFIX/ARIANE 42P 2.9 06:31:34 10° N 06:36:28 43° WNW 06:41:22 10° SW
Meteor 1-11 Rocket 4.2 06:33:44 10° SW 06:39:20 42° WNW 06:44:54 10° N
Cosmos 1092 Rocket 3.9 06:33:56 10° SSW 06:40:02 72° W 06:46:12 10° N
Cosmos 2151 Rocket 4.3 06:36:21 10° SW 06:40:15 31° WNW 06:44:12 10° N
Cosmos 2360 Rocket 3.2 06:38:39 10° NNW 06:44:06 45° NE 06:49:32 10° SE
SJ 16-02 3.3 06:45:52 12° W 06:45:52 12° W 06:47:08 10° WSW
Cosmos 1980 Rocket 3.0 06:41:42 14° NW 06:45:41 31° WSW 06:50:34 10° SSW
Okean-O 3.7 06:43:11 10° N 06:46:44 24° WNW 06:50:15 10° WSW
Cosmos 44 3.8 06:43:32 11° WSW 06:47:15 31° NW 06:51:14 10° NNE
IRAS Rocket 4.4 06:47:28 10° NNE 06:53:01 79° ESE 06:58:34 10° SSW
RESURS DK-1 3.7 06:53:09 14° WNW 06:55:37 23° WSW 06:58:52 10° SSW
Cosmos 2195 Rocket 4.5 06:49:48 10° SSW 06:56:08 76° W 07:02:27 10° N
deb Kosmos-1763 4.3 06:52:32 10° SSW 06:56:17 76° ESE 07:00:02 10° NNE
Cosmos 2219 Rocket 4.2 06:52:13 10° N 06:56:28 21° NE 07:00:42 10° E
ERBS 4.4 06:55:28 11° NW 06:57:12 15° N 06:59:14 10° NNE
Ariane Rocket 3.0 06:52:36 10° NNE 06:57:42 88° ESE 07:02:46 10° SSW
AQUARIUS 4.1 06:53:28 10° NNE 06:58:00 85° WNW 07:02:30 10° SSW
CZ-4 R/B 1.6 06:53:57 10° NNE 06:58:06 78° ESE 07:02:18 10° S
SJ-12 4.4 06:54:20 10° N 06:58:07 38° WNW 07:01:53 10° SW
Cosmos 1553 Rocket 4.2 06:53:03 10° N 06:59:23 77° E 07:05:35 10° SSE
Cosmos 2026 Rocket 4.0 06:53:43 10° S 06:59:58 81° W 07:06:21 10° N
Cosmos 1300 Rocket 4.3 06:58:45 10° SW 07:02:29 28° WNW 07:06:15 10° NNW
SJ-7 4.4 06:59:21 10° N 07:03:18 56° WNW 07:07:15 10° SSW
Cosmos 2237 Rocket 4.4 07:01:36 10° N 07:04:55 15° NE 07:08:11 10° ENE
Cosmos 1666 3.8 07:02:38 10° S 07:06:20 48° E 07:10:03 10° NNE
Lacrosse 5 rocket 3.7 07:06:22 10° W 07:07:54 12° WSW 07:09:27 10° SW
SeaSat 1 4.3 07:06:04 10° NNW 07:07:56 12° NW 07:09:46 10° WNW
Meteor 1-4 Rocket 3.0 07:06:58 10° SSW 07:10:34 41° WNW 07:14:13 10° N
Okean 2 4.2 07:09:10 10° NNW 07:12:48 31° W 07:16:25 10° SSW
Cosmos 192 4.4 07:09:14 10° SW 07:14:04 61° WNW 07:18:58 10° NNE
Cosmos 1484 Rocket 3.2 07:10:26 10° N 07:14:10 41° WNW 07:17:50 10° SW
Cosmos 1340 Rocket 3.8 07:12:46 10° N 07:16:36 47° ENE 07:20:25 10° SSE
Cosmos 1680 Rocket 3.8 07:11:53 10° SSW 07:17:03 74° ESE 07:22:17 10° NNE
Thor Agena Rocket 4.4 07:13:48 10° SSW 07:18:06 28° W 07:22:27 10° NW
Cosmos 1025 Rocket 3.9 07:14:26 10° NNW 07:18:08 29° W 07:21:49 10° SSW
CSL-04 Debris 4.2 07:13:07 10° N 07:18:30 65° WNW 07:23:52 10° SSW
SL-16 R/B 2.6 07:13:42 10° NW 07:19:06 46° WSW 07:24:29 10° S
Cosmos 773 Rocket 4.2 07:16:04 10° SW 07:21:00 46° WNW 07:25:59 10° NNE
